sat.trackr.live / text

‹ back to catalog

STARLINK-11666 [DTC]

NORAD 63667 · 2025-085D

PAYLOAD ACTIVE UNKNOWN

§ Identity

Operator
Country
US
Launch date
2025-04-28
Launch site
AFETR
Launch vehicle
Mass (kg)
RCS (m²)

Purposes: comms

External: N2YO · Heavens-Above · Gunter

§ Orbital elements

Epoch: 2026-09-20T22:18:23.090688Z

Period
91.67 min
Inclination
43.0017°
Eccentricity
0.0002238
Mean motion
15.70859134 rev/d
Perigee alt
354.9 km
Apogee alt
357.9 km
Semi-major
6,734.6 km
B*
6.9043e-4
RAAN
181.9639°
Arg perigee
269.3014°
Mean anomaly
90.7597°
Rev number
8,085

§ Raw data

STARLINK-11666 [DTC]1 63667U 25085D   26263.92943392  .00089175  00000+0  69043-3 0  99922 63667  43.0017 181.9639 0002238 269.3014  90.7597 15.70859134 80853

JSON: /api/v1/satellites/63667 · /tle

For live sub-satellite position, see the globe view (requires WebGL).

§ Visibility from observer

Set your observer location to see the next 7 days of passes ≥ 10°. The values pass through the URL so the page stays shareable.

No JS? Fill the form by hand. The geolocation button needs JavaScript.